Terminal Aerodrome Forecast
Issued by NWS Dodge City, KS

Home | Current Version | Previous Version | Text Only | Print | Product List | Glossary On
Versions: 1 2 3 4 5 6 7 8 9 10 11 12 13 14 15 16 17 18 19 20 21 22 23 24 25 26 27 28
000
FTUS43 KDDC 201720
TAFDDC
TAF
KDDC 201720Z 2018/2118 VRB06KT P6SM SKC
     FM202200 04007KT P6SM VCTS SCT050CB
     FM210100 04006KT P6SM SCT050
     FM210900 01010KT P6SM VCTS BKN040CB=

USA.gov is the U.S. government's official web portal to all federal, state and local government web resources and services.